TimePDT,TemperatureF,Dew PointF,Humidity,Sea Level PressureIn,VisibilityMPH,Wind Direction,Wind SpeedMPH,Gust SpeedMPH,PrecipitationIn,Events,Conditions,WindDirDegrees,DateUTC
12:53 AM,48.9,44.1,83,29.98,4.0,SE,3.5,-,N/A,,Haze,130,2011-11-01 07:53:00
1:53 AM,50.0,46.0,86,29.98,4.0,Calm,Calm,-,N/A,,Clear,0,2011-11-01 08:53:00
2:53 AM,46.0,43.0,89,29.98,3.0,Calm,Calm,-,N/A,,Clear,0,2011-11-01 09:53:00
3:53 AM,46.9,43.0,86,29.97,3.0,Calm,Calm,-,N/A,,Clear,0,2011-11-01 10:53:00
4:53 AM,46.0,42.1,86,29.98,3.0,East,3.5,-,N/A,,Clear,80,2011-11-01 11:53:00
5:00 AM,44.6,42.8,93,29.97,2.5,Calm,Calm,-,N/A,,Clear,0,2011-11-01 12:00:00
5:20 AM,46.4,42.8,87,29.97,3.0,Calm,Calm,-,N/A,,Clear,0,2011-11-01 12:20:00
5:29 AM,46.4,41.0,81,29.97,2.5,Calm,Calm,-,N/A,,Haze,0,2011-11-01 12:29:00
5:50 AM,44.6,42.8,93,29.97,3.0,Calm,Calm,-,N/A,,Clear,0,2011-11-01 12:50:00
5:53 AM,45.0,42.1,90,29.98,2.5,Calm,Calm,-,N/A,,Clear,0,2011-11-01 12:53:00
6:11 AM,46.4,41.0,81,29.98,3.0,WNW,3.5,-,N/A,,Haze,290,2011-11-01 13:11:00
6:53 AM,45.0,39.9,82,29.99,3.0,Calm,Calm,-,N/A,,Haze,0,2011-11-01 13:53:00
7:53 AM,52.0,45.0,77,30.01,5.0,North,-9999.0,-,N/A,,Haze,0,2011-11-01 14:53:00
8:53 AM,57.0,43.0,59,30.04,8.0,NNW,15.0,21.9,N/A,,Clear,330,2011-11-01 15:53:00
9:53 AM,60.1,39.0,46,30.04,9.0,NW,18.4,25.3,N/A,,Clear,320,2011-11-01 16:53:00
10:53 AM,63.0,39.0,41,30.06,9.0,NW,13.8,-,N/A,,Clear,320,2011-11-01 17:53:00
11:53 AM,66.0,39.0,37,30.05,8.0,NNW,11.5,-,N/A,,Clear,330,2011-11-01 18:53:00
12:53 PM,69.1,39.0,33,30.03,7.0,Variable,5.8,-,N/A,,Clear,0,2011-11-01 19:53:00
1:53 PM,70.0,39.0,32,30.01,7.0,NNW,9.2,-,N/A,,Clear,330,2011-11-01 20:53:00
2:53 PM,71.1,39.9,32,30.01,7.0,NW,10.4,-,N/A,,Clear,320,2011-11-01 21:53:00
3:53 PM,72.0,39.9,31,30.01,8.0,NW,9.2,-,N/A,,Clear,320,2011-11-01 22:53:00
4:53 PM,71.1,41.0,34,30.01,8.0,NW,5.8,-,N/A,,Clear,310,2011-11-01 23:53:00
5:53 PM,66.9,42.1,40,30.02,9.0,NNW,4.6,-,N/A,,Clear,330,2011-11-02 00:53:00
6:53 PM,62.1,43.0,50,30.03,9.0,NW,4.6,-,N/A,,Clear,320,2011-11-02 01:53:00
7:53 PM,60.1,39.9,47,30.03,8.0,WNW,5.8,-,N/A,,Clear,300,2011-11-02 02:53:00
8:53 PM,59.0,39.9,49,30.05,8.0,NNW,5.8,-,N/A,,Clear,330,2011-11-02 03:53:00
9:53 PM,57.0,37.9,49,30.06,8.0,NW,5.8,-,N/A,,Clear,310,2011-11-02 04:53:00
10:53 PM,55.0,34.0,45,30.06,9.0,NW,5.8,-,N/A,,Clear,320,2011-11-02 05:53:00
11:53 PM,52.0,36.0,54,30.07,9.0,NNW,4.6,-,N/A,,Clear,340,2011-11-02 06:53:00